TimePDT,TemperatureF,Dew PointF,Humidity,Sea Level PressureIn,VisibilityMPH,Wind Direction,Wind SpeedMPH,Gust SpeedMPH,PrecipitationIn,Events,Conditions,WindDirDegrees,DateUTC
12:00 AM,50.0,35.6,58,30.03,15.0,NNW,9.2,-,N/A,,Clear,340,2012-10-09 07:00:00
1:00 AM,50.0,35.6,58,30.04,15.0,North,9.2,-,N/A,,Clear,350,2012-10-09 08:00:00
2:00 AM,44.6,33.8,66,30.06,15.0,Calm,Calm,-,N/A,,Clear,0,2012-10-09 09:00:00
3:00 AM,41.0,32.0,70,30.07,15.0,NNW,3.5,-,N/A,,Clear,330,2012-10-09 10:00:00
4:00 AM,39.2,32.0,75,30.07,15.0,Calm,Calm,-,N/A,,Clear,0,2012-10-09 11:00:00
5:00 AM,41,33,63,30.09,15,North,5.8,,,,,0,2012-10-09 12:00:00
5:00 AM,41.0,32.0,70,30.09,15.0,North,5.8,-,N/A,,Clear,350,2012-10-09 12:00:00
6:00 AM,41.0,32.0,70,30.09,15.0,North,6.9,-,N/A,,Clear,350,2012-10-09 13:00:00
7:00 AM,41.0,32.0,70,30.11,15.0,North,6.9,-,N/A,,Mostly Cloudy,10,2012-10-09 14:00:00
8:00 AM,42.8,32.0,66,30.12,15.0,NNE,4.6,-,N/A,,Scattered Clouds,20,2012-10-09 15:00:00
9:00 AM,51.8,37.4,58,30.13,15.0,Calm,Calm,-,N/A,,Mostly Cloudy,0,2012-10-09 16:00:00
10:00 AM,55.4,42.8,63,30.12,15.0,North,6.9,-,N/A,,Scattered Clouds,10,2012-10-09 17:00:00
11:00 AM,58,42,45,30.12,15,North,6.9,,,,Partly Cloudy,350,2012-10-09 18:00:00
11:00 AM,57.2,42.8,59,30.12,15.0,North,8.1,-,N/A,,Scattered Clouds,10,2012-10-09 18:00:00
12:00 PM,60.8,42.8,52,30.11,15.0,North,5.8,-,N/A,,Scattered Clouds,10,2012-10-09 19:00:00
1:00 PM,62.6,41.0,45,30.08,15.0,NNW,5.8,-,N/A,,Scattered Clouds,340,2012-10-09 20:00:00
2:00 PM,64.4,41.0,42,30.05,15.0,North,8.1,-,N/A,,Partly Cloudy,360,2012-10-09 21:00:00
3:00 PM,64.4,39.2,40,30.03,15.0,North,8.1,-,N/A,,Partly Cloudy,360,2012-10-09 22:00:00
4:00 PM,64.4,41.0,42,30.02,15.0,North,8.1,-,N/A,,Clear,360,2012-10-09 23:00:00
5:00 PM,64,41,32,30.00,15,North,8.1,,,,,0,2012-10-10 00:00:00
5:00 PM,64.4,41.0,42,30.00,15.0,North,8.1,-,N/A,,Clear,10,2012-10-10 00:00:00
6:00 PM,60.8,46.4,59,29.99,15.0,NNW,3.5,-,N/A,,Clear,330,2012-10-10 01:00:00
7:00 PM,53.6,41.0,62,29.99,15.0,Calm,Calm,-,N/A,,Clear,0,2012-10-10 02:00:00
8:00 PM,46.4,37.4,71,30.00,15.0,ENE,3.5,-,N/A,,Clear,60,2012-10-10 03:00:00
9:00 PM,48.2,37.4,66,29.99,15.0,NNE,2.3,-,N/A,,Clear,30,2012-10-10 04:00:00
10:00 PM,44.6,37.4,76,29.99,15.0,Calm,Calm,-,N/A,,Clear,0,2012-10-10 05:00:00
11:00 PM,43,37,72,29.99,15,Calm,Calm,,,,,,2012-10-10 06:00:00
11:00 PM,42.8,37.4,81,29.99,15.0,Calm,Calm,-,N/A,,Clear,0,2012-10-10 06:00:00